Time,TemperatureF,DewpointF,PressureIn,WindDirection,WindDirectionDegrees,WindSpeedMPH,WindSpeedGustMPH,Humidity,HourlyPrecipIn,Conditions,Clouds,dailyrainin,SoftwareType,DateUTC
2013-08-13 00:13:00,56.3,55.0,29.98,WNW,287,6.0,6.0,94,0.00,,,0.00,weatherlink.com 1.10,2013-08-13 07:13:00,
2013-08-13 00:28:00,56.1,55.0,29.98,West,261,4.0,8.0,95,0.00,,,0.00,weatherlink.com 1.10,2013-08-13 07:28:00,
2013-08-13 00:43:00,56.6,55.0,29.98,SW,236,3.0,6.0,94,0.00,,,0.00,weatherlink.com 1.10,2013-08-13 07:43:00,
2013-08-13 00:58:00,56.6,55.0,29.97,West,274,2.0,6.0,93,0.00,,,0.00,weatherlink.com 1.10,2013-08-13 07:58:00,
2013-08-13 01:13:00,56.2,55.0,29.97,SSW,203,2.0,5.0,94,0.00,,,0.00,weatherlink.com 1.10,2013-08-13 08:13:00,
2013-08-13 01:28:00,56.1,54.0,29.97,SE,145,0.0,3.0,94,0.00,,,0.00,weatherlink.com 1.10,2013-08-13 08:28:00,
2013-08-13 01:43:00,56.1,55.0,29.97,SE,129,1.0,4.0,95,0.00,,,0.00,weatherlink.com 1.10,2013-08-13 08:43:00,
2013-08-13 01:58:00,55.9,55.0,29.97,SE,140,5.0,7.0,95,0.00,,,0.00,weatherlink.com 1.10,2013-08-13 08:58:00,
2013-08-13 02:13:00,55.6,54.0,29.97,ESE,117,2.0,5.0,95,0.00,,,0.00,weatherlink.com 1.10,2013-08-13 09:13:00,
2013-08-13 02:28:00,55.4,54.0,29.97,East,101,0.0,1.0,95,0.00,,,0.00,weatherlink.com 1.10,2013-08-13 09:28:00,
2013-08-13 02:43:00,55.2,54.0,29.97,ESE,111,0.0,1.0,95,0.00,,,0.00,weatherlink.com 1.10,2013-08-13 09:43:00,
2013-08-13 02:58:00,54.7,53.0,29.97,East,89,0.0,1.0,95,0.00,,,0.00,weatherlink.com 1.10,2013-08-13 09:58:00,
2013-08-13 03:13:00,54.4,53.0,29.97,East,84,0.0,2.0,95,0.00,,,0.00,weatherlink.com 1.10,2013-08-13 10:13:00,
2013-08-13 03:28:00,54.6,54.0,29.97,East,91,0.0,2.0,96,0.00,,,0.00,weatherlink.com 1.10,2013-08-13 10:28:00,
2013-08-13 03:43:00,54.4,53.0,29.97,ESE,104,0.0,3.0,96,0.00,,,0.00,weatherlink.com 1.10,2013-08-13 10:43:00,
2013-08-13 03:58:00,53.9,53.0,29.97,East,98,0.0,1.0,96,0.00,,,0.00,weatherlink.com 1.10,2013-08-13 10:58:00,
2013-08-13 04:13:00,53.8,53.0,29.97,ESE,118,0.0,1.0,96,0.00,,,0.00,weatherlink.com 1.10,2013-08-13 11:13:00,
2013-08-13 04:28:00,53.6,53.0,29.97,ENE,59,0.0,3.0,96,0.00,,,0.00,weatherlink.com 1.10,2013-08-13 11:28:00,
2013-08-13 04:43:00,53.6,53.0,29.97,ENE,69,0.0,3.0,96,0.00,,,0.00,weatherlink.com 1.10,2013-08-13 11:43:00,
2013-08-13 04:58:00,53.6,53.0,29.97,NE,50,3.0,4.0,96,0.00,,,0.00,weatherlink.com 1.10,2013-08-13 11:58:00,
2013-08-13 05:13:00,53.6,53.0,29.97,NE,39,1.0,3.0,96,0.00,,,0.00,weatherlink.com 1.10,2013-08-13 12:13:00,
2013-08-13 05:28:00,53.5,52.0,29.97,ENE,63,0.0,2.0,96,0.00,,,0.00,weatherlink.com 1.10,2013-08-13 12:28:00,
2013-08-13 05:43:00,53.5,52.0,29.97,NE,51,1.0,3.0,96,0.00,,,0.00,weatherlink.com 1.10,2013-08-13 12:43:00,
2013-08-13 05:58:00,53.3,52.0,29.97,ENE,59,3.0,3.0,96,0.00,,,0.00,weatherlink.com 1.10,2013-08-13 12:58:00,
2013-08-13 06:13:00,53.1,52.0,29.97,ENE,57,3.0,5.0,96,0.00,,,0.00,weatherlink.com 1.10,2013-08-13 13:13:00,
2013-08-13 06:29:00,52.7,52.0,29.97,NE,54,3.0,6.0,97,0.00,,,0.00,weatherlink.com 1.10,2013-08-13 13:29:00,
2013-08-13 06:44:00,52.3,52.0,29.98,ENE,57,6.0,6.0,97,0.00,,,0.00,weatherlink.com 1.10,2013-08-13 13:44:00,
2013-08-13 06:59:00,52.2,51.0,29.98,NE,49,0.0,4.0,97,0.00,,,0.00,weatherlink.com 1.10,2013-08-13 13:59:00,
2013-08-13 07:14:00,52.6,52.0,29.99,NE,51,1.0,3.0,98,0.00,,,0.00,weatherlink.com 1.10,2013-08-13 14:14:00,
2013-08-13 07:29:00,52.8,52.0,29.99,NE,49,0.0,3.0,98,0.00,,,0.00,weatherlink.com 1.10,2013-08-13 14:29:00,
2013-08-13 07:44:00,52.8,52.0,29.99,ENE,63,4.0,5.0,98,0.00,,,0.00,weatherlink.com 1.10,2013-08-13 14:44:00,
2013-08-13 07:59:00,53.2,53.0,30.00,SW,215,0.0,3.0,98,0.00,,,0.00,weatherlink.com 1.10,2013-08-13 14:59:00,
2013-08-13 08:14:00,53.3,53.0,30.00,SE,139,2.0,5.0,97,0.00,,,0.00,weatherlink.com 1.10,2013-08-13 15:14:00,
2013-08-13 08:29:00,53.3,53.0,30.01,South,184,2.0,20.0,97,0.00,,,0.00,weatherlink.com 1.10,2013-08-13 15:29:00,
2013-08-13 08:44:00,53.9,53.0,30.01,WSW,257,0.0,4.0,97,0.00,,,0.00,weatherlink.com 1.10,2013-08-13 15:44:00,
2013-08-13 08:59:00,54.5,53.0,30.01,SSW,211,0.0,3.0,96,0.00,,,0.00,weatherlink.com 1.10,2013-08-13 15:59:00,
2013-08-13 09:14:00,55.4,54.0,30.01,West,281,2.0,4.0,96,0.00,,,0.00,weatherlink.com 1.10,2013-08-13 16:14:00,
2013-08-13 09:29:00,56.2,55.0,30.01,WNW,299,3.0,6.0,95,0.00,,,0.00,weatherlink.com 1.10,2013-08-13 16:29:00,
2013-08-13 09:44:00,57.9,56.0,30.01,NW,316,5.0,13.0,92,0.00,,,0.00,weatherlink.com 1.10,2013-08-13 16:44:00,
2013-08-13 09:59:00,59.3,57.0,30.01,North,4,1.0,12.0,92,0.00,,,0.00,weatherlink.com 1.10,2013-08-13 16:59:00,
2013-08-13 10:14:00,59.7,57.0,30.01,WNW,297,8.0,11.0,89,0.00,,,0.00,weatherlink.com 1.10,2013-08-13 17:14:00,
2013-08-13 10:29:00,60.6,58.0,30.01,NW,316,3.0,10.0,90,0.00,,,0.00,weatherlink.com 1.10,2013-08-13 17:29:00,
2013-08-13 10:44:00,61.4,58.0,30.01,WNW,303,8.0,11.0,88,0.00,,,0.00,weatherlink.com 1.10,2013-08-13 17:44:00,
2013-08-13 10:59:00,61.6,58.0,30.00,NW,306,10.0,11.0,88,0.00,,,0.00,weatherlink.com 1.10,2013-08-13 17:59:00,
2013-08-13 11:14:00,62.4,58.0,30.00,WNW,298,4.0,11.0,86,0.00,,,0.00,weatherlink.com 1.10,2013-08-13 18:14:00,
2013-08-13 11:29:00,63.5,59.0,29.99,WNW,302,6.0,11.0,84,0.00,,,0.00,weatherlink.com 1.10,2013-08-13 18:29:00,
2013-08-13 11:44:00,64.9,59.0,29.99,West,270,7.0,11.0,82,0.00,,,0.00,weatherlink.com 1.10,2013-08-13 18:44:00,
2013-08-13 11:59:00,66.4,59.0,29.98,NW,322,2.0,10.0,78,0.00,,,0.00,weatherlink.com 1.10,2013-08-13 18:59:00,
2013-08-13 12:14:00,67.4,60.0,29.98,WNW,283,4.0,13.0,76,0.00,,,0.00,weatherlink.com 1.10,2013-08-13 19:14:00,
2013-08-13 12:29:00,67.9,60.0,29.98,WNW,302,14.0,17.0,75,0.00,,,0.00,weatherlink.com 1.10,2013-08-13 19:29:00,
2013-08-13 12:44:00,66.8,60.0,29.98,West,280,6.0,16.0,78,0.00,,,0.00,weatherlink.com 1.10,2013-08-13 19:44:00,
2013-08-13 12:59:00,65.5,59.0,29.98,NW,323,2.0,18.0,80,0.00,,,0.00,weatherlink.com 1.10,2013-08-13 19:59:00,
2013-08-13 13:14:00,66.4,59.0,29.98,NNW,330,6.0,16.0,78,0.00,,,0.00,weatherlink.com 1.10,2013-08-13 20:14:00,
2013-08-13 13:29:00,66.1,59.0,29.98,WNW,295,6.0,15.0,79,0.00,,,0.00,weatherlink.com 1.10,2013-08-13 20:29:00,
2013-08-13 13:44:00,66.4,59.0,29.98,WNW,288,10.0,17.0,77,0.00,,,0.00,weatherlink.com 1.10,2013-08-13 20:44:00,
2013-08-13 13:59:00,66.6,59.0,29.98,NW,314,4.0,17.0,77,0.00,,,0.00,weatherlink.com 1.10,2013-08-13 20:59:00,
2013-08-13 14:15:00,66.3,60.0,29.98,NW,311,11.0,18.0,79,0.00,,,0.00,weatherlink.com 1.10,2013-08-13 21:15:00,
2013-08-13 14:30:00,65.8,58.0,29.98,WNW,297,11.0,16.0,75,0.00,,,0.00,weatherlink.com 1.10,2013-08-13 21:30:00,
2013-08-13 14:45:00,65.7,58.0,29.98,WNW,301,7.0,15.0,77,0.00,,,0.00,weatherlink.com 1.10,2013-08-13 21:45:00,
2013-08-13 15:00:00,65.4,58.0,29.98,WNW,294,10.0,15.0,77,0.00,,,0.00,weatherlink.com 1.10,2013-08-13 22:00:00,
2013-08-13 15:15:00,64.0,58.0,29.97,NW,321,10.0,15.0,80,0.00,,,0.00,weatherlink.com 1.10,2013-08-13 22:15:00,
2013-08-13 15:30:00,63.7,57.0,29.97,NW,316,11.0,16.0,80,0.00,,,0.00,weatherlink.com 1.10,2013-08-13 22:30:00,
2013-08-13 15:45:00,62.9,57.0,29.97,WNW,284,6.0,16.0,82,0.00,,,0.00,weatherlink.com 1.10,2013-08-13 22:45:00,
2013-08-13 16:00:00,63.3,57.0,29.97,WNW,288,10.0,15.0,81,0.00,,,0.00,weatherlink.com 1.10,2013-08-13 23:00:00,
2013-08-13 16:15:00,63.9,58.0,29.97,WNW,284,10.0,14.0,80,0.00,,,0.00,weatherlink.com 1.10,2013-08-13 23:15:00,
2013-08-13 16:30:00,64.3,58.0,29.96,NW,308,10.0,15.0,80,0.00,,,0.00,weatherlink.com 1.10,2013-08-13 23:30:00,
2013-08-13 16:45:00,62.3,57.0,29.97,WNW,285,9.0,16.0,84,0.00,,,0.00,weatherlink.com 1.10,2013-08-13 23:45:00,
2013-08-13 17:00:00,62.2,57.0,29.96,WNW,297,9.0,16.0,83,0.00,,,0.00,weatherlink.com 1.10,2013-08-14 00:00:00,
2013-08-13 17:15:00,62.1,57.0,29.96,WNW,290,8.0,15.0,83,0.00,,,0.00,weatherlink.com 1.10,2013-08-14 00:15:00,
2013-08-13 17:30:00,61.7,57.0,29.96,West,276,10.0,16.0,85,0.00,,,0.00,weatherlink.com 1.10,2013-08-14 00:30:00,
2013-08-13 17:45:00,61.6,57.0,29.96,WNW,285,10.0,17.0,84,0.00,,,0.00,weatherlink.com 1.10,2013-08-14 00:45:00,
2013-08-13 18:00:00,61.5,57.0,29.96,West,277,11.0,16.0,85,0.00,,,0.00,weatherlink.com 1.10,2013-08-14 01:00:00,
2013-08-13 18:15:00,61.2,57.0,29.95,WNW,297,7.0,16.0,85,0.00,,,0.00,weatherlink.com 1.10,2013-08-14 01:15:00,
2013-08-13 18:30:00,61.0,57.0,29.95,West,281,13.0,17.0,86,0.00,,,0.00,weatherlink.com 1.10,2013-08-14 01:30:00,
2013-08-13 18:45:00,60.9,57.0,29.94,West,271,9.0,16.0,86,0.00,,,0.00,weatherlink.com 1.10,2013-08-14 01:45:00,
2013-08-13 19:00:00,60.8,57.0,29.94,WNW,295,11.0,16.0,86,0.00,,,0.00,weatherlink.com 1.10,2013-08-14 02:00:00,
2013-08-13 19:15:00,60.6,56.0,29.94,WNW,290,10.0,12.0,85,0.00,,,0.00,weatherlink.com 1.10,2013-08-14 02:15:00,
2013-08-13 19:30:00,60.2,56.0,29.94,WNW,282,7.0,13.0,85,0.00,,,0.00,weatherlink.com 1.10,2013-08-14 02:30:00,
2013-08-13 19:46:00,59.7,56.0,29.93,West,281,10.0,13.0,86,0.00,,,0.00,weatherlink.com 1.10,2013-08-14 02:46:00,
2013-08-13 20:00:00,59.2,55.0,29.94,NW,323,6.0,11.0,87,0.00,,,0.00,weatherlink.com 1.10,2013-08-14 03:00:00,
2013-08-13 20:15:00,58.4,55.0,29.94,WNW,288,3.0,10.0,88,0.00,,,0.00,weatherlink.com 1.10,2013-08-14 03:15:00,
2013-08-13 20:30:00,58.2,55.0,29.94,WNW,287,4.0,11.0,88,0.00,,,0.00,weatherlink.com 1.10,2013-08-14 03:30:00,
2013-08-13 20:45:00,58.0,55.0,29.94,WNW,287,9.0,11.0,88,0.00,,,0.00,weatherlink.com 1.10,2013-08-14 03:45:00,
2013-08-13 21:00:00,57.9,55.0,29.95,WNW,303,6.0,10.0,89,0.00,,,0.00,weatherlink.com 1.10,2013-08-14 04:00:00,
2013-08-13 21:15:00,57.6,54.0,29.95,NW,312,6.0,11.0,89,0.00,,,0.00,weatherlink.com 1.10,2013-08-14 04:15:00,
2013-08-13 21:30:00,57.6,55.0,29.95,WNW,285,3.0,11.0,90,0.00,,,0.00,weatherlink.com 1.10,2013-08-14 04:30:00,
2013-08-13 21:45:00,57.6,55.0,29.96,West,280,6.0,8.0,90,0.00,,,0.00,weatherlink.com 1.10,2013-08-14 04:45:00,
2013-08-13 22:00:00,57.4,55.0,29.96,WSW,255,5.0,7.0,90,0.00,,,0.00,weatherlink.com 1.10,2013-08-14 05:00:00,
2013-08-13 22:15:00,57.5,55.0,29.96,WNW,284,3.0,7.0,90,0.00,,,0.00,weatherlink.com 1.10,2013-08-14 05:15:00,
2013-08-13 22:30:00,57.1,54.0,29.96,WNW,291,5.0,7.0,90,0.00,,,0.00,weatherlink.com 1.10,2013-08-14 05:30:00,
2013-08-13 22:46:00,57.0,55.0,29.96,WNW,285,6.0,11.0,91,0.00,,,0.00,weatherlink.com 1.10,2013-08-14 05:46:00,
2013-08-13 23:00:00,57.0,54.0,29.96,WNW,298,5.0,11.0,90,0.00,,,0.00,weatherlink.com 1.10,2013-08-14 06:00:00,
2013-08-13 23:15:00,56.8,54.0,29.96,West,278,5.0,11.0,91,0.00,,,0.00,weatherlink.com 1.10,2013-08-14 06:15:00,
2013-08-13 23:30:00,56.8,54.0,29.97,West,278,4.0,10.0,91,0.00,,,0.00,weatherlink.com 1.10,2013-08-14 06:30:00,
2013-08-13 23:45:00,56.8,54.0,29.97,West,281,4.0,10.0,90,0.00,,,0.00,weatherlink.com 1.10,2013-08-14 06:45:00,